Location: Kolin
(50.0330°N, 15.2000°E)
Time: 03:25:16
(UTC+01:00)

ISS - Pass Details

Date: 07 October 2020
Orbit: 417 x 420 km, 51.6° (Epoch: 25 October)

Event Time Altitude Azimuth Distance (km) Brightness Sun altitude
Rises 19:34:16 0° 281° (W) 2,368 2.1 -12.1°
Reaches altitude 10° 19:37:09 10° 254° (WSW) 1,500 0.2 -12.6°
Maximum altitude 19:38:55 14° 223° (SW) 1,298 -0.8 -12.9°
Drops below altitude 10° 19:40:39 10° 191° (S) 1,495 -0.9 -13.1°
Enters shadow 19:43:22 - 165° (SSE) 2,297 -0.2 -13.6°
